Location: Beugnon
(47.6222°N, 3.7850°E)
Time: 09:46:12
(UTC+00:00)

Cosmos 1023 Rocket - Visible Passes

Search period start: 11 August 2020 00:00
Search period end: 21 August 2020 00:00
Orbit: 736 x 773 km, 74.1° (Epoch: 10 August)

Date Brightness Start Highest point End Pass type
(mag) Time Alt. Az. Time Alt. Az. Time Alt. Az.
11 Aug 4.7 20:28:10 10° SSW 20:33:27 78° WNW 20:38:45 10° NNE visible
11 Aug 7.4 22:13:03 10° W 22:16:08 15° NW 22:19:13 10° N visible
12 Aug 4.5 19:47:10 10° S 19:52:21 61° ESE 19:57:34 10° NNE visible
12 Aug 6.9 21:30:21 10° WSW 21:34:33 24° NW 21:38:47 10° N visible
13 Aug 6.1 20:48:14 10° SW 20:53:08 37° WNW 20:58:02 10° N visible
14 Aug 7.6 03:48:08 10° N 03:51:32 17° NE 03:54:55 10° E visible
14 Aug 5.1 20:06:37 10° SW 20:11:50 63° WNW 20:17:06 10° NNE visible
14 Aug 7.7 21:52:22 10° WNW 21:54:45 13° NW 21:57:06 10° NNW visible
15 Aug 8.0 03:08:23 10° NNE 03:09:51 11° NE 03:11:19 10° ENE visible
15 Aug 4.5 19:25:26 10° SSW 19:30:42 77° ESE 19:35:59 10° NNE visible
15 Aug 7.3 21:09:17 10° W 21:13:06 20° NW 21:16:56 10° N visible
16 Aug 6.7 04:06:54 10° N 04:11:35 32° ENE 04:16:10 10° ESE visible
16 Aug 6.6 20:26:57 10° WSW 20:31:37 31° NW 20:36:17 10° N visible
17 Aug 7.4 03:26:15 10° N 03:30:06 20° NE 03:33:55 10° E visible
17 Aug 5.6 19:45:09 10° SW 19:50:16 51° WNW 19:55:25 10° NNE visible
17 Aug 8.0 21:32:08 10° NW 21:33:23 11° NW 21:34:36 10° NNW visible
18 Aug 7.9 02:46:01 10° NNE 02:48:28 13° NE 02:50:54 10° ENE visible
18 Aug 7.6 20:48:21 10° W 20:51:40 17° NW 20:55:00 10° N visible
19 Aug 6.1 03:45:10 10° N 03:50:03 39° ENE 03:54:51 10° SE visible
19 Aug 7.0 20:05:45 10° WSW 20:10:07 26° NW 20:14:30 10° N visible
20 Aug 7.0 03:04:24 10° N 03:08:38 24° NE 03:12:48 10° ESE visible
20 Aug 6.1 19:23:45 10° SW 19:28:43 41° WNW 19:33:42 10° N visible
